Wetbulb
34.17 34.36 34.06 34.21 35.08 35.60 35.94 36.37 35.64 30.78 30.92 32.13 33.43 35.11 36.38 37.32 35.99 36.23 36.20 35.74 37.21 38.32 39.26 39.72 40.26 41.09 41.71 42.31 42.64 42.88 43.18 43.44 43.89 44.60 45.28 45.91 46.53 46.99
33.47 32.98 32.88 33.21 33.50 34.04 34.04 34.35 34.59 34.24 30.90 33.50 33.43 34.43 35.15 35.07 35.15 35.60 35.11 34.17 35.00 37.03 38.03 38.53 39.07 39.88 40.56 41.31 41.72 41.96 41.97 42.78 43.69 44.36 45.05 45.31 45.50 45.88
32.13 31.76 31.31 32.64 32.32 32.63 33.02 33.17 32.72 33.67 31.90 31.37 33.82 33.92 33.81 34.22 34.77 35.30 35.00 35.26 36.23 35.78 37.98 38.37 38.79 39.60 39.98 40.74 40.96 40.92 41.11 40.74 40.74 41.28 41.82 42.49 43.78 44.11
29.80 30.12 29.60 30.53 30.31 31.09 31.46 30.94 31.29 32.13 32.12 29.63 31.66 32.63 32.70 33.31 33.38 33.21 33.46 34.47 35.31 34.69 36.45 37.01 37.60 37.98 39.52 39.81 40.07 40.37 39.76 39.11 39.43 39.77 40.20 40.86 41.71 42.44
30.24 29.96 29.72 30.12 29.49 30.14 30.50 30.23 30.79 31.02 31.27 30.73 29.74 31.96 32.45 32.76 32.19 32.97 32.74 33.70 34.47 33.70 34.83 35.22 35.89 37.25 37.48 37.77 38.08 38.52 38.34 38.49 38.58 38.71 39.23 39.77 40.39 41.22
29.60 29.75 29.69 29.64 29.32 29.55 29.66 29.92 30.20 30.11 30.05 29.75 29.47 29.83 30.89 31.95 31.72 30.30 30.81 33.16 32.91 34.35 33.96 33.66 35.25 34.30 34.57 35.14 35.35 35.11 35.64 36.65 37.72 38.47 38.67 39.00 39.22 39.95
28.87 29.03 29.42 29.13 28.84 29.30 30.18 29.73 29.60 29.21 28.93 28.57 28.42 28.88 29.37 29.67 29.15 31.45 29.92 31.67 32.87 33.81 33.30 34.08 34.07 34.49 35.23 34.97 34.66 34.77 35.86 36.51 36.86 37.36 37.84 38.37 38.88 39.13
27.65 28.34 28.83 29.05 29.21 29.63 30.75 31.55 31.72 30.83 29.44 28.95 28.63 27.93 28.79 30.03 31.13 30.28 29.75 28.67 27.46 34.18 31.57 31.30 33.48 32.96 34.52 35.12 33.51 34.83 35.46 35.96 36.44 36.73 37.02 37.14 37.35 37.75
28.73 28.95 28.58 29.63 29.71 29.86 29.12 29.43 30.40 31.18 32.49 32.09 29.37 29.53 29.51 30.86 31.05 29.94 29.65 29.10 28.45 31.38 30.63 28.34 32.59 31.73 34.52 34.42 34.20 34.39 34.92 35.01 35.22 35.61 36.00 36.18 36.55 36.91
29.56 29.35 28.79 28.87 29.42 28.89 28.95 28.62 28.91 29.53 29.67 29.82 29.83 30.18 31.05 31.79 31.35 30.63 29.84 29.68 30.42 31.00 31.52 26.40 31.90 31.26 33.60 34.29 34.10 34.03 33.75 33.98 34.37 34.79 34.93 34.68 34.59 34.84
28.56 28.79 28.60 28.23 28.50 28.89 28.64 27.95 28.25 28.88 31.18 31.38 31.75 32.17 32.68 33.12 33.02 31.78 29.48 28.33 27.03 28.44 31.58 29.19 30.35 30.17 31.49 31.69 33.20 32.11 32.43 32.91 33.28 33.38 33.33 33.55 33.65 33.73
28.05 28.10 28.09 28.88 29.56 30.08 29.31 29.13 27.31 28.22 29.39 29.73 30.22 30.83 31.51 31.55 32.30 32.22 31.78 28.65 28.14 27.23 31.18 28.66 28.90 29.04 26.34 31.18 31.49 31.93 32.20 32.25 32.07 32.24 32.36 32.41 32.47 31.57
26.55 26.71 27.76 28.00 28.86 29.62 30.18 29.80 29.20 30.09 30.06 29.99 29.26 29.66 29.97 30.27 30.68 31.17 31.27 29.88 27.88 28.27 31.42 30.59 29.16 28.62 28.03 26.55 29.38 30.56 30.60 30.43 30.47 30.58 31.16 31.36 31.31 31.03
26.50 27.45 28.12 28.42 28.77 29.36 29.85 30.40 31.21 31.34 30.76 30.46 29.08 28.23 28.15 28.71 29.91 30.74 31.27 31.60 32.20 30.53 32.16 32.05 29.86 28.96 28.72 26.76 25.09 28.26 29.09 29.95 29.88 29.10 29.64 30.59 30.98 31.13
27.89 27.73 28.03 28.35 28.72 28.62 28.16 28.33 28.69 28.15 27.79 27.35 26.92 27.69 28.81 30.17 30.52 30.69 31.15 31.40 31.40 31.46 31.55 31.95 30.71 29.85 29.19 26.59 24.92 25.60 25.71 27.68 29.13 28.37 28.69 28.52 28.28 28.96
26.09 26.56 26.65 27.46 28.53 28.13 27.47 27.24 26.86 26.41 25.52 24.93 25.41 27.16 28.66 28.87 28.24 29.45 28.91 29.57 28.30 28.59 30.63 31.35 31.32 29.97 27.32 27.08 26.29 24.74 26.84 24.59 27.79 28.21 28.04 27.89 28.39 28.85
27.05 27.01 26.29 25.34 24.64 24.79 25.12 25.35 25.81 25.95 25.28 25.94 25.52 25.39 25.39 25.93 26.34 27.64 27.79 28.10 26.79 26.63 27.52 29.72 29.45 29.44 28.96 27.29 24.69 25.33 25.80 26.25 27.37 27.31 26.71 25.58 27.01 28.18
25.79 23.82 22.73 22.32 21.48 21.65 21.50 21.89 22.84 22.95 23.46 23.94 24.00 24.26 24.25 24.62 25.30 26.60 27.16 26.48 25.46 25.84 26.40 27.92 28.27 25.39 24.90 25.34 27.51 24.62 25.07 25.36 27.00 27.00 26.57 24.88 25.06 27.63
22.57 21.35 20.26 20.15 19.89 19.81 19.71 19.79 19.50 20.89 21.68 21.13 21.83 22.84 23.66 24.09 23.79 24.30 24.87 25.36 24.54 25.12 26.05 27.12 26.41 25.12 20.94 19.30 25.01 28.27 24.35 25.34 25.63 25.30 26.19 25.66 24.76 26.19
20.65 19.62 18.94 18.95 18.68 18.32 18.41 18.23 18.50 18.81 18.96 19.41 20.06 21.10 22.16 22.61 22.88 23.16 23.85 23.32 23.80 24.30 24.63 25.97 25.52 24.57 22.41 21.25 21.54 24.66 27.56 24.49 24.25 23.82 24.34 26.21 27.17 28.39
19.27 18.64 18.73 18.22 17.85 17.87 17.72 17.53 17.22 17.01 17.78 18.37 19.00 19.91 21.07 21.66 21.61 22.51 22.85 23.21 23.56 23.69 22.68 23.50 25.27 27.73 26.18 24.85 19.94 20.75 24.20 26.40 25.84 24.04 24.19 23.02 22.02 22.58
18.67 18.27 18.26 17.87 17.40 17.05 16.90 16.90 16.40 16.64 16.90 17.19 17.71 18.56 19.15 19.91 19.52 20.10 20.74 20.95 21.19 21.61 22.17 24.09 25.54 24.51 22.87 20.96 19.61 20.34 22.06 24.86 26.78 26.98 26.88 25.67 22.30 18.19
18.34 17.72 17.30 17.03 16.96 16.70 16.39 16.23 15.83 15.83 16.55 16.54 16.98 17.58 18.16 17.81 18.61 19.48 19.89 20.31 20.82 20.72 21.09 21.09 21.97 22.61 21.11 20.47 20.47 20.41 20.71 21.21 22.56 22.45 23.96 26.77 26.74 26.67
MSLP
1032.31 1032.45 1032.50 1032.82 1032.90 1032.88 1032.79 1032.65 1032.28 1032.78 1033.46 1034.57 1034.76 1035.33 1035.37 1035.43 1035.78 1035.52 1035.39 1035.45 1035.14 1034.88 1034.66 1034.45 1034.28 1034.10 1033.85 1033.63 1033.44 1033.30 1033.08 1032.99 1032.84 1032.58 1032.32 1032.08 1031.77 1031.65
1032.88 1033.03 1033.19 1033.33 1033.42 1033.49 1033.49 1033.36 1033.23 1033.04 1033.44 1034.38 1034.90 1035.20 1035.51 1035.51 1035.77 1035.61 1035.57 1035.58 1035.38 1035.13 1034.84 1034.65 1034.49 1034.32 1034.10 1033.84 1033.59 1033.37 1033.25 1033.18 1032.99 1032.78 1032.53 1032.27 1032.11 1031.89
1033.46 1033.62 1033.83 1033.83 1033.88 1033.97 1033.96 1033.90 1033.88 1033.71 1033.66 1034.74 1035.00 1035.41 1035.47 1035.49 1035.49 1035.49 1035.46 1035.25 1035.08 1035.23 1034.92 1034.70 1034.50 1034.26 1034.04 1033.78 1033.51 1033.43 1033.47 1033.47 1033.31 1033.13 1032.91 1032.68 1032.49 1032.17
1033.94 1034.00 1034.18 1034.35 1034.50 1034.65 1034.46 1034.42 1034.47 1034.53 1034.32 1034.53 1035.07 1035.29 1035.36 1035.55 1035.52 1035.41 1035.29 1035.13 1034.96 1034.99 1034.90 1034.72 1034.50 1034.29 1034.05 1033.88 1033.80 1033.68 1033.55 1033.62 1033.53 1033.39 1033.15 1032.91 1032.69 1032.42
1034.31 1034.42 1034.60 1034.63 1034.76 1034.95 1034.94 1034.88 1034.91 1034.94 1035.01 1034.94 1035.21 1035.46 1035.46 1035.57 1035.42 1035.28 1035.20 1035.01 1034.87 1034.98 1034.77 1034.71 1034.59 1034.32 1034.23 1034.08 1033.96 1033.91 1033.91 1033.81 1033.63 1033.36 1033.15 1032.95 1032.70 1032.49
1034.85 1034.95 1035.01 1034.96 1035.07 1035.34 1035.32 1035.27 1035.28 1035.24 1035.34 1035.34 1035.37 1035.36 1035.44 1035.54 1035.63 1035.30 1034.95 1034.85 1034.68 1034.62 1034.65 1034.71 1034.63 1034.56 1034.39 1034.26 1034.15 1034.07 1033.90 1033.76 1033.53 1033.27 1033.06 1032.89 1032.65 1032.42
1035.13 1035.29 1035.38 1035.52 1035.72 1035.83 1035.51 1035.59 1035.62 1035.61 1035.57 1035.57 1035.51 1035.51 1035.42 1035.42 1035.34 1035.22 1035.17 1034.83 1034.50 1034.52 1034.30 1034.16 1034.20 1034.11 1033.87 1033.96 1033.96 1033.90 1033.74 1033.55 1033.29 1033.07 1032.91 1032.72 1032.47 1032.23
1035.32 1035.49 1035.62 1035.84 1035.90 1035.99 1035.80 1035.75 1036.08 1036.03 1035.94 1035.79 1035.63 1035.45 1035.39 1035.42 1035.40 1035.28 1035.10 1034.90 1034.46 1034.42 1034.39 1034.00 1033.99 1033.74 1033.57 1033.58 1033.71 1033.67 1033.45 1033.34 1033.07 1032.88 1032.73 1032.51 1032.37 1032.13
1035.43 1035.55 1035.69 1035.76 1035.93 1035.87 1036.07 1036.10 1035.96 1035.97 1035.87 1036.09 1035.88 1035.66 1035.49 1035.38 1035.32 1035.16 1035.00 1034.75 1034.52 1034.34 1034.50 1034.01 1033.68 1033.45 1033.11 1033.21 1033.37 1033.28 1033.18 1032.99 1032.79 1032.60 1032.46 1032.25 1032.02 1031.79
1035.37 1035.55 1035.67 1035.62 1035.72 1035.95 1035.86 1035.73 1035.62 1035.61 1035.64 1035.58 1035.48 1035.47 1035.44 1035.29 1035.25 1035.13 1034.92 1034.66 1034.41 1034.23 1034.28 1033.97 1033.41 1033.05 1032.87 1032.76 1032.90 1032.93 1032.80 1032.64 1032.47 1032.35 1032.21 1032.09 1031.91 1031.69
1035.42 1035.48 1035.50 1035.53 1035.58 1035.83 1035.65 1035.53 1035.47 1035.33 1035.19 1035.27 1035.24 1035.09 1034.92 1034.86 1034.89 1034.66 1034.58 1034.27 1033.72 1033.45 1033.44 1033.72 1033.18 1032.77 1032.66 1032.44 1032.32 1032.45 1032.68 1032.49 1032.30 1032.12 1031.96 1031.78 1031.52 1031.31
1035.12 1035.21 1035.35 1035.28 1035.24 1035.26 1035.12 1035.06 1035.01 1034.80 1034.58 1034.41 1034.34 1034.21 1034.24 1034.08 1034.04 1033.94 1033.81 1033.58 1033.32 1032.95 1032.92 1033.10 1032.96 1032.89 1032.49 1032.01 1032.13 1032.17 1032.02 1031.94 1031.88 1031.70 1031.54 1031.38 1031.20 1030.99
1034.87 1034.81 1034.82 1035.02 1035.03 1034.89 1034.67 1034.50 1034.43 1034.29 1034.16 1034.11 1033.94 1033.61 1033.54 1033.44 1033.39 1033.30 1033.20 1033.11 1032.81 1032.51 1032.48 1032.58 1032.82 1032.74 1032.63 1032.40 1032.07 1031.98 1031.71 1031.45 1031.23 1031.10 1030.96 1030.81 1030.71 1030.68
1034.69 1034.64 1034.59 1034.73 1034.72 1034.49 1034.24 1033.99 1033.82 1033.66 1033.64 1033.51 1033.25 1032.95 1032.79 1032.67 1032.57 1032.56 1032.52 1032.43 1032.35 1032.26 1032.11 1031.97 1032.13 1032.28 1032.02 1031.85 1031.76 1031.64 1031.28 1031.02 1030.84 1030.60 1030.42 1030.28 1030.17 1029.98
1034.31 1034.34 1034.46 1034.31 1034.09 1033.97 1034.05 1033.94 1033.81 1033.51 1033.30 1033.16 1033.01 1032.76 1032.61 1032.38 1032.18 1032.11 1031.98 1031.92 1031.82 1031.81 1031.74 1031.53 1031.45 1031.81 1031.76 1031.54 1031.40 1031.34 1031.07 1030.47 1030.36 1030.16 1029.95 1029.78 1029.59 1029.31
1034.39 1034.15 1034.04 1034.04 1033.89 1033.77 1033.80 1033.65 1033.47 1033.32 1033.22 1033.05 1032.74 1032.43 1032.20 1032.14 1032.00 1031.84 1031.57 1031.35 1031.24 1031.12 1031.08 1031.06 1030.91 1031.04 1031.15 1031.16 1031.09 1030.90 1030.65 1030.34 1029.81 1029.51 1029.36 1029.13 1028.90 1028.60
1033.83 1033.67 1033.73 1033.74 1033.70 1033.61 1033.52 1033.46 1033.38 1033.26 1033.05 1032.78 1032.52 1032.28 1032.07 1031.80 1031.49 1031.29 1031.07 1030.86 1030.58 1030.35 1030.17 1030.17 1030.40 1030.37 1030.45 1030.66 1030.49 1030.20 1029.83 1029.52 1029.17 1028.89 1028.73 1028.36 1028.01 1027.65
1033.14 1033.55 1033.71 1033.88 1033.86 1033.81 1033.70 1033.53 1033.38 1033.23 1032.99 1032.71 1032.41 1032.20 1031.92 1031.59 1031.22 1030.92 1030.71 1030.45 1030.07 1029.74 1029.48 1029.44 1029.51 1029.92 1030.07 1029.94 1029.82 1029.37 1029.12 1028.80 1028.42 1028.23 1028.09 1027.68 1027.02 1026.67
1033.49 1033.62 1033.75 1033.87 1033.92 1033.88 1033.76 1033.56 1033.28 1033.09 1032.95 1032.77 1032.42 1032.00 1031.62 1031.21 1030.83 1030.46 1030.17 1029.75 1029.37 1029.13 1028.87 1028.80 1028.86 1028.83 1028.81 1028.38 1028.15 1028.33 1028.41 1028.10 1027.90 1027.53 1027.26 1026.97 1026.42 1025.70
1033.50 1033.50 1033.56 1033.66 1033.71 1033.69 1033.58 1033.41 1033.18 1032.97 1032.72 1032.39 1032.02 1031.66 1031.30 1030.88 1030.33 1029.88 1029.49 1029.13 1028.78 1028.42 1028.14 1028.05 1028.13 1028.09 1028.00 1027.75 1027.68 1027.52 1027.53 1027.54 1027.39 1026.89 1026.41 1025.98 1025.57 1025.17
1033.16 1033.28 1033.35 1033.40 1033.40 1033.34 1033.21 1033.09 1032.94 1032.64 1032.32 1032.00 1031.60 1031.19 1030.81 1030.36 1029.79 1029.34 1028.92 1028.47 1028.09 1027.87 1027.44 1027.22 1027.21 1027.27 1027.62 1027.87 1027.51 1026.80 1026.51 1026.67 1026.69 1026.44 1025.89 1025.61 1025.01 1024.54
1032.75 1032.86 1032.92 1032.95 1032.90 1032.87 1032.76 1032.61 1032.40 1032.11 1031.80 1031.49 1031.10 1030.74 1030.42 1030.07 1029.58 1029.13 1028.74 1028.32 1027.96 1027.66 1027.37 1027.17 1027.05 1027.17 1027.21 1027.05 1026.39 1025.91 1025.54 1025.38 1025.32 1025.14 1024.93 1024.87 1024.62 1023.60
1032.24 1032.37 1032.37 1032.36 1032.32 1032.28 1032.21 1031.99 1031.79 1031.53 1031.25 1030.95 1030.64 1030.27 1029.94 1029.53 1029.16 1028.75 1028.38 1028.04 1027.69 1027.37 1027.10 1026.83 1026.78 1026.71 1026.44 1026.32 1025.85 1025.32 1024.98 1024.69 1024.48 1024.08 1023.43 1023.35 1023.01 1022.68
Wind_Speed
7 7 6 5 4 4 3 1 1 4 3 4 3 3 2 2 5 4 5 8 8 7 7 6 6 6 7 7 7 6 6 7 7 8 9 9 10 10
5 7 6 5 5 4 4 3 3 1 3 2 2 4 2 1 3 3 4 5 5 7 6 5 5 5 5 6 6 5 5 6 8 11 12 12 12 12
7 7 7 6 4 4 4 4 4 3 3 3 2 3 3 1 1 3 3 3 2 6 7 6 6 6 5 5 5 4 5 6 7 9 11 11 12 11
7 7 6 4 5 4 4 5 4 4 1 4 3 2 2 1 3 4 3 3 3 3 8 7 7 6 7 5 6 6 5 4 7 9 11 11 11 12
6 6 5 5 5 4 4 4 3 3 3 1 2 1 1 1 2 3 3 3 3 4 6 5 6 5 5 6 5 6 6 7 9 11 11 12 12 13
6 5 5 4 4 3 3 3 3 2 2 0 1 1 2 1 3 3 3 3 4 3 2 3 4 5 6 6 5 6 7 9 10 11 12 13 13 13
5 5 4 4 3 2 1 2 1 0 0 1 2 2 3 3 4 2 4 4 5 3 3 3 3 4 4 6 6 7 8 9 10 11 12 13 13 13
4 4 4 3 2 2 2 2 3 2 3 4 4 5 5 5 5 4 4 4 4 2 4 5 4 6 5 4 2 8 10 11 12 13 13 13 14 15
3 2 2 2 2 1 1 4 5 6 7 4 6 7 7 7 6 6 6 7 7 6 5 7 5 6 5 5 9 9 11 12 14 14 14 14 14 14
3 2 3 3 3 4 5 5 6 6 7 6 8 8 9 8 9 9 9 9 8 7 6 7 7 6 6 6 9 11 11 10 11 10 10 14 17 18
3 4 4 5 5 7 7 7 8 9 8 11 14 16 16 16 14 7 8 8 9 8 6 7 7 8 7 7 7 5 8 8 9 14 17 17 17 17
4 5 7 8 9 10 8 7 9 10 9 10 9 10 12 12 15 12 8 8 8 6 6 8 8 6 6 5 5 4 6 11 13 15 16 16 17 9
4 5 4 7 9 11 12 8 9 11 11 10 9 9 8 9 8 9 10 10 9 9 10 7 6 7 6 7 7 7 8 9 8 9 13 15 14 12
6 6 7 9 11 13 12 14 16 15 7 7 9 9 9 9 9 9 11 10 9 12 12 12 6 9 8 8 8 7 8 8 8 8 8 11 15 15
6 8 12 13 14 11 11 13 13 9 9 8 8 7 7 8 10 9 10 12 12 12 9 13 8 8 7 8 8 8 10 8 9 10 9 8 8 9
8 7 8 9 12 11 9 9 7 7 8 9 9 9 8 8 7 7 7 8 8 7 10 12 11 10 8 8 8 8 9 8 8 9 9 9 10 10
8 7 5 4 5 5 5 5 5 6 7 8 8 8 8 8 8 8 8 9 10 9 8 8 9 11 8 9 8 9 9 9 10 10 10 9 10 10
4 3 3 3 4 5 6 7 7 9 8 8 8 8 8 8 9 8 8 9 10 9 9 9 8 6 7 9 16 10 9 9 9 9 10 10 10 10
3 3 4 5 6 6 7 8 8 8 9 8 9 9 9 9 11 9 9 9 9 9 10 9 8 8 9 10 7 15 10 9 8 9 9 9 11 12
4 5 5 6 6 7 8 8 9 9 9 9 9 9 9 9 9 9 9 10 10 10 10 8 8 9 9 9 8 8 11 9 9 10 11 10 11 21
6 6 6 6 7 8 8 8 9 9 9 8 9 9 8 8 9 9 9 16 16 10 11 9 8 14 5 5 7 10 9 18 17 12 10 10 11 11
7 7 7 7 8 8 8 8 8 9 8 8 9 9 9 9 9 10 9 9 9 8 8 7 6 6 7 9 11 14 10 9 13 22 26 23 12 13
8 8 8 8 8 8 8 8 8 9 8 8 8 9 9 8 9 9 10 10 9 9 9 8 7 7 9 9 14 11 14 13 9 10 11 20 26 29
Wind_Direction
92 89 86 77 69 72 85 79 290 170 159 173 157 150 126 104 42 12 2 7 360 357 352 349 348 343 342 339 340 342 347 349 349 349 348 349 349 347
94 95 89 83 77 67 67 59 41 355 135 142 149 153 151 139 60 343 1 317 1 350 344 337 330 325 316 323 314 327 349 359 9 4 356 349 343 339
100 97 89 88 85 75 68 57 54 28 118 125 126 141 176 295 322 332 332 328 347 3 350 345 340 337 326 321 355 354 14 5 359 353 352 345 336 334
112 110 105 98 87 77 75 72 65 43 60 136 126 158 235 325 322 314 331 322 324 355 336 336 331 324 324 337 341 335 325 316 332 334 331 330 330 325
110 109 107 109 99 93 85 85 76 68 60 118 128 179 242 291 295 282 308 296 289 307 300 294 317 324 348 335 327 349 334 319 312 312 315 318 318 318
95 91 88 81 86 86 78 71 69 69 64 78 207 236 258 153 286 298 277 261 297 298 272 301 309 306 300 306 307 308 306 300 302 309 311 310 307 306
113 107 101 86 88 64 64 85 91 100 288 282 273 270 264 259 270 306 291 301 289 291 283 242 275 286 274 267 268 277 285 299 302 303 306 309 307 307
128 121 127 143 118 345 324 240 218 245 272 274 277 272 281 272 279 282 286 291 306 157 284 286 290 283 284 267 294 289 295 295 298 300 302 303 303 301
145 155 154 168 238 241 231 278 276 279 260 256 272 278 283 273 274 273 269 273 275 286 279 282 273 274 270 272 279 283 286 292 294 294 296 297 298 300
187 211 237 260 254 275 275 279 279 274 268 265 262 260 266 273 271 273 279 283 280 267 253 267 278 269 283 283 273 280 291 291 294 297 305 306 302 299
226 246 258 271 281 276 276 274 280 280 275 267 270 273 270 258 253 259 252 258 263 266 249 248 269 281 285 282 282 272 284 287 283 290 295 293 295 297
242 257 253 271 276 267 265 259 268 280 285 283 278 265 259 262 266 267 260 265 267 268 239 244 266 270 280 274 282 264 280 286 285 285 287 288 290 288
263 272 267 268 278 279 276 272 266 275 279 276 273 263 261 261 259 257 255 259 260 260 263 261 258 261 251 275 282 282 288 291 288 287 286 285 283 281
258 270 276 280 282 279 278 280 286 287 288 274 266 260 260 262 263 263 261 261 260 264 265 257 240 240 257 260 274 274 284 286 285 281 279 282 282 276
276 279 278 280 286 295 291 285 288 277 277 276 281 282 276 278 277 273 267 259 258 260 256 257 250 235 251 257 268 275 285 285 288 284 280 276 280 282
262 263 264 278 280 288 290 282 275 276 276 278 277 276 277 272 267 272 271 267 257 240 232 246 248 236 241 249 259 266 267 270 283 278 280 281 278 273
259 258 249 260 270 270 273 277 281 279 274 274 277 279 279 277 271 271 267 263 259 255 251 233 239 242 239 246 259 260 264 266 263 273 282 276 273 272
281 255 259 268 281 289 288 288 288 287 284 285 283 281 278 274 274 269 264 263 264 263 258 251 243 220 234 242 236 253 260 263 269 273 271 274 277 273
220 238 263 275 280 282 283 283 283 284 292 283 278 276 275 272 277 271 271 268 257 255 255 258 251 233 241 251 251 227 249 260 271 272 268 265 272 276
251 266 270 274 275 276 276 276 278 278 276 276 275 274 272 271 270 269 263 262 267 267 261 247 237 232 240 256 273 271 244 256 258 265 271 272 269 277
259 257 263 271 276 276 274 273 273 273 273 274 273 270 270 275 276 275 273 277 272 272 257 248 242 251 252 265 255 258 256 241 246 260 269 272 278 282
257 262 270 271 271 269 271 270 270 270 271 271 270 273 272 271 271 275 276 275 274 274 278 281 279 256 249 253 263 271 274 269 263 261 259 258 263 268
257 263 267 268 267 266 265 266 265 268 266 267 268 269 268 268 268 268 268 269 269 266 267 269 268 259 253 252 258 266 266 268 266 268 260 252 255 259